Colorado City, AZ

4:02 PM MST on December 13, 2017 (GMT -0700)
Colorado City Municipal

Weather History for KAZC - March, 2014

Change the Weather History Date:

Thursday, March 13, 2014

  Actual Average (KSGU) Record (KSGU)
Temperature  
Mean Temperature 48 °F -  
Max Temperature 60 °F 67 °F 86 °F (1946)
Min Temperature 37 °F 37 °F 22 °F (1950)
Degree Days  
Heating Degree Days 16    
Moisture  
Dew Point 20 °F    
Average Humidity 32    
Maximum Humidity 67    
Minimum Humidity 21    
Precipitation  
Precipitation 0.00 in - - ()
Sea Level Pressure  
Sea Level Pressure 30.06 in    
Wind  
Wind Speed 8 mph (ENE)    
Max Wind Speed 16 mph    
Max Gust Speed 24 mph    
Visibility 10 miles    
Events      
Averages and records for this station are not official NWS values.
T = Trace of Precipitation, MM = Missing Value Source: NWS Daily Summary

Daily Weather History Graph

Daily Weather History Graph

Search for Another Location

Airport or City:

Trip Planner

Search our weather history database for the weather conditions in past years. The results will help you decide how hot, cold, wet, or windy it might be!

Date:

Astronomy

Mar. 13, 2014 Rise Set
Actual Time 6:45 AM MST 6:37 PM MST
Civil Twilight 6:19 AM MST 7:03 PM MST
Nautical Twilight 5:49 AM MST 7:33 PM MST
Astronomical Twilight 5:19 AM MST 8:04 PM MST
Moon 4:09 PM MST 4:51 AM MST
Length of Visible Light 12h 43m
Length of Day
11h 51m
Waxing Gibbous, 92% of the Moon is Illuminated
Mar 13
Waxing Gibbous
Mar 16
Full
Mar 23
Last Quarter
Mar 30
New
Apr 7
First Quarter

Hourly Weather History & Observations

Time (MST) Temp. Windchill Dew Point Humidity Pressure Visibility Wind Dir Wind Speed Gust Speed Precip Events Conditions
12:15 AM 48.4 °F - 11.1 °F 22% 30.14 in 10.0 mi ENE 12.7 mph 24.2 mph N/A   Clear
12:35 AM 48.2 °F - 12.0 °F 23% 30.14 in 10.0 mi ENE 12.7 mph 24.2 mph N/A   Clear
12:55 AM 48.0 °F - 11.8 °F 23% 30.13 in 10.0 mi NE 12.7 mph 19.6 mph N/A   Clear
1:15 AM 47.3 °F - 12.4 °F 25% 30.13 in 10.0 mi NE 12.7 mph - N/A   Clear
1:35 AM 47.3 °F - 12.7 °F 25% 30.13 in 10.0 mi NE 11.5 mph - N/A   Clear
1:55 AM 47.3 °F - 13.1 °F 25% 30.12 in 10.0 mi NE 10.4 mph - N/A   Clear
2:15 AM 47.7 °F - 13.1 °F 25% 30.11 in 10.0 mi NE 13.8 mph 18.4 mph N/A   Clear
2:35 AM 47.8 °F - 13.1 °F 25% 30.11 in 10.0 mi NE 11.5 mph - N/A   Clear
2:55 AM 47.5 °F - 13.5 °F 26% 30.10 in 10.0 mi NE 9.2 mph - N/A   Clear
3:15 AM 46.9 °F - 13.6 °F 26% 30.09 in 10.0 mi NE 8.1 mph - N/A   Clear
3:35 AM 46.6 °F - 13.5 °F 26% 30.08 in 10.0 mi NE 11.5 mph - N/A   Clear
3:55 AM 46.0 °F 41.0 °F 13.3 °F 27% 30.08 in 10.0 mi NE 10.4 mph - N/A   Clear
4:15 AM 46.4 °F 41.1 °F 13.1 °F 26% 30.07 in 10.0 mi ENE 11.5 mph - N/A   Clear
4:35 AM 46.8 °F - 13.3 °F 26% 30.07 in 10.0 mi NE 16.1 mph 23.0 mph N/A   Clear
4:55 AM 47.3 °F - 13.6 °F 26% 30.07 in 10.0 mi ENE 10.4 mph 17.3 mph N/A   Scattered Clouds
5:15 AM 46.9 °F - 13.8 °F 26% 30.08 in 10.0 mi NE 10.4 mph - N/A   Mostly Cloudy
5:35 AM 47.5 °F - 13.8 °F 26% 30.07 in 10.0 mi ENE 11.5 mph 17.3 mph N/A   Overcast
5:55 AM 47.5 °F - 14.4 °F 27% 30.07 in 10.0 mi NE 12.7 mph 20.7 mph N/A   Overcast
6:15 AM 47.8 °F - 14.7 °F 27% 30.07 in 10.0 mi Calm Calm - N/A   Overcast
6:35 AM 48.7 °F - 15.8 °F 27% 30.08 in 10.0 mi Calm Calm - N/A   Overcast
6:55 AM 46.4 °F 43.5 °F 16.5 °F 30% 30.08 in 10.0 mi North 5.8 mph - N/A   Overcast
7:15 AM 45.9 °F 43.6 °F 16.0 °F 30% 30.09 in 10.0 mi North 4.6 mph - N/A   Overcast
7:35 AM 46.9 °F - 15.6 °F 29% 30.09 in 10.0 mi NE 12.7 mph - N/A   Overcast
7:55 AM 47.7 °F - 15.3 °F 27% 30.10 in 10.0 mi NE 13.8 mph 17.3 mph N/A   Scattered Clouds
8:15 AM 49.8 °F - 15.4 °F 25% 30.10 in 10.0 mi NNE 12.7 mph 17.3 mph N/A   Scattered Clouds
8:35 AM 50.0 °F - 16.2 °F 26% 30.10 in 10.0 mi NNE 8.1 mph - N/A   Mostly Cloudy
8:55 AM 51.1 °F - 15.8 °F 25% 30.10 in 10.0 mi NE 10.4 mph - N/A   Scattered Clouds
9:15 AM 52.0 °F - 15.8 °F 24% 30.10 in 10.0 mi NE 9.2 mph - N/A   Scattered Clouds
9:35 AM 53.1 °F - 15.8 °F 23% 30.09 in 10.0 mi NE 11.5 mph - N/A   Scattered Clouds
9:55 AM 54.3 °F - 16.2 °F 22% 30.09 in 10.0 mi NE 9.2 mph - N/A   Mostly Cloudy
10:15 AM 55.6 °F - 16.3 °F 21% 30.08 in 10.0 mi ENE 6.9 mph - N/A   Mostly Cloudy
10:35 AM 57.0 °F - 16.7 °F 21% 30.08 in 10.0 mi NE 10.4 mph - N/A   Scattered Clouds
10:55 AM 57.0 °F - 17.4 °F 21% 30.08 in 10.0 mi Calm Calm - N/A   Scattered Clouds
11:15 AM 57.7 °F - 18.0 °F 21% 30.08 in 10.0 mi SSE 3.5 mph - N/A   Mostly Cloudy
11:35 AM 58.6 °F - 18.5 °F 21% 30.07 in 10.0 mi Calm Calm - N/A   Overcast
11:55 AM 58.8 °F - 18.9 °F 21% 30.07 in 10.0 mi ESE 3.5 mph - N/A   Overcast
12:15 PM 60.4 °F - 21.0 °F 22% 30.06 in 10.0 mi East 6.9 mph - N/A   Mostly Cloudy
12:35 PM 59.4 °F - 23.2 °F 25% 30.05 in 10.0 mi Calm Calm - N/A   Mostly Cloudy
12:55 PM 59.9 °F - 21.9 °F 23% 30.04 in 10.0 mi SE 4.6 mph - N/A   Overcast
1:15 PM 60.6 °F - 22.6 °F 23% 30.04 in 10.0 mi Calm Calm - N/A   Overcast
1:35 PM 59.2 °F - 22.1 °F 24% 30.03 in 10.0 mi West 8.1 mph - N/A   Overcast
1:55 PM 57.9 °F - 22.6 °F 26% 30.02 in 10.0 mi ENE 4.6 mph - N/A   Overcast
2:15 PM 57.9 °F - 22.8 °F 26% 30.02 in 10.0 mi West 4.6 mph - N/A   Overcast
2:35 PM 57.7 °F - 23.4 °F 27% 30.02 in 10.0 mi North 8.1 mph - N/A   Overcast
2:55 PM 57.6 °F - 24.3 °F 28% 30.02 in 10.0 mi SW 3.5 mph - N/A   Overcast
3:15 PM 57.7 °F - 24.1 °F 27% 30.02 in 10.0 mi SSE 3.5 mph - N/A   Overcast
3:35 PM 57.7 °F - 24.3 °F 28% 30.02 in 10.0 mi Calm Calm - N/A   Overcast
3:55 PM 57.4 °F - 24.4 °F 28% 30.01 in 10.0 mi WNW 5.8 mph - N/A   Overcast
4:15 PM 57.6 °F - 24.6 °F 28% 30.01 in 10.0 mi WSW 4.6 mph - N/A   Overcast
4:35 PM 58.1 °F - 24.8 °F 28% 30.01 in 10.0 mi WSW 3.5 mph - N/A   Mostly Cloudy
4:55 PM 57.9 °F - 24.8 °F 28% 30.01 in 10.0 mi NNW 3.5 mph - N/A   Mostly Cloudy
5:15 PM 57.2 °F - 24.4 °F 28% 30.00 in 10.0 mi Calm Calm - N/A   Scattered Clouds
5:35 PM 56.5 °F - 24.6 °F 29% 30.00 in 10.0 mi Calm Calm - N/A   Mostly Cloudy
5:55 PM 56.3 °F - 24.6 °F 29% 30.00 in 10.0 mi Calm Calm - N/A   Scattered Clouds
6:15 PM 55.8 °F - 25.2 °F 31% 30.00 in 10.0 mi SSE 4.6 mph - N/A   Mostly Cloudy
6:35 PM 54.3 °F - 25.5 °F 33% 30.00 in 10.0 mi SE 3.5 mph - N/A   Overcast
6:55 PM 52.5 °F - 25.3 °F 35% 30.01 in 10.0 mi SSE 4.6 mph - N/A   Overcast
7:15 PM 50.9 °F - 25.7 °F 38% 30.01 in 10.0 mi Calm Calm - N/A   Scattered Clouds
7:35 PM 50.0 °F - 26.1 °F 39% 30.01 in 10.0 mi Calm Calm - N/A   Clear
7:55 PM 45.0 °F 41.2 °F 26.6 °F 49% 30.01 in 10.0 mi ENE 6.9 mph - N/A   Scattered Clouds
8:15 PM 44.2 °F - 28.4 °F 54% 30.02 in 10.0 mi Calm Calm - N/A   Scattered Clouds
8:35 PM 45.3 °F - 27.0 °F 49% 30.02 in 10.0 mi Calm Calm - N/A   Scattered Clouds
8:55 PM 39.7 °F 37.6 °F 26.1 °F 58% 30.03 in 10.0 mi SSE 3.5 mph - N/A   Clear
9:15 PM 38.3 °F 33.9 °F 25.5 °F 60% 30.03 in 10.0 mi SE 5.8 mph - N/A   Clear
9:35 PM 37.8 °F 33.3 °F 25.5 °F 61% 30.04 in 10.0 mi SE 5.8 mph - N/A   Clear
9:55 PM 37.0 °F - 25.7 °F 64% 30.04 in 10.0 mi Calm Calm - N/A   Clear
10:15 PM 37.2 °F 33.6 °F 25.7 °F 63% 30.04 in 10.0 mi SSE 4.6 mph - N/A   Clear
10:35 PM 37.4 °F 32.8 °F 26.2 °F 64% 30.04 in 10.0 mi SSE 5.8 mph - N/A   Clear
10:55 PM 38.3 °F 35.9 °F 26.8 °F 63% 30.05 in 10.0 mi SE 3.5 mph - N/A   Clear
11:15 PM 37.0 °F 34.5 °F 26.8 °F 66% 30.05 in 10.0 mi SE 3.5 mph - N/A   Clear
11:35 PM 37.4 °F - 27.3 °F 67% 30.05 in 10.0 mi Calm Calm - N/A   Scattered Clouds
11:55 PM 38.1 °F 35.7 °F 27.5 °F 66% 30.05 in 10.0 mi SE 3.5 mph - N/A   Mostly Cloudy